Weather History for Watsonville, CA

Change the Weather History Date:

Sunday, February 16, 2014

  Actual Average Record
Temperature  
Mean Temperature 59 °F 52 °F  
Max Temperature 70 °F 61 °F 74 °F (2013)
Min Temperature 47 °F 43 °F 32 °F (2006)
Degree Days  
Heating Degree Days 6    
Month to date heating degree days 202  
Since 1 July heating degree days 1624  
Cooling Degree Days 0    
Month to date cooling degree days 0  
Year to date cooling degree days 0  
Growing Degree Days 9 (Base 50)    
Moisture  
Dew Point 50 °F    
Average Humidity 69    
Maximum Humidity 100    
Minimum Humidity 37    
Precipitation  
Precipitation 0.06 in - 2.22 in (1959)
Month to date precipitation 2.26  
Year to date precipitation 2.31  
Since 1 July precipitation 3.38  
Sea Level Pressure  
Sea Level Pressure 30.12 in    
Wind  
Wind Speed 1 mph (WNW)    
Max Wind Speed 9 mph    
Max Gust Speed 33 mph    
Visibility 5 miles    
Events Fog , Rain    
T = Trace of Precipitation, MM = Missing Value Source: NWS Daily Summary

Daily Weather History Graph

Daily Weather History Graph

Search for Another Location

Airport:

Trip Planner

Search our weather history database for the weather conditions in past years. The results will help you decide how hot, cold, wet, or windy it might be!

Date:

Astronomy

Feb. 16, 2014 Rise Set
Actual Time 6:54 AM PST 5:48 PM PST
Civil Twilight 6:27 AM PST 6:15 PM PST
Nautical Twilight 5:57 AM PST 6:45 PM PST
Astronomical Twilight 5:27 AM PST 7:15 PM PST
Moon 7:46 PM PST (2/16) 7:30 AM PST (2/16)
Length of Visible Light 11h 47m
Length of Day
10h 54m
Full, 97% of the Moon is Illuminated
Feb 16
Full
Feb 22
Last Quarter
Mar 1
New
Mar 8
First Quarter
Mar 16
Full

Hourly Weather History & Observations

Time (PST) Temp. Dew Point Humidity Pressure Visibility Wind Dir Wind Speed Gust Speed Precip Events Conditions
12:51 AM 53.6 °F 53.6 °F 100% 30.08 in 2.0 mi Calm Calm - 0.00 in Rain Light Rain
12:53 AM 54.0 °F 53.1 °F 97% 30.08 in 1.8 mi Calm Calm - 0.00 in Rain Light Rain
1:00 AM 53.6 °F 53.6 °F 100% 30.08 in 1.8 mi Calm Calm - 0.00 in Rain Light Rain
1:25 AM 53.6 °F 53.6 °F 100% 30.09 in 2.0 mi Calm Calm - 0.01 in   Overcast
1:35 AM 53.6 °F 53.6 °F 100% 30.09 in 1.5 mi Calm Calm - 0.02 in Rain Light Rain
1:50 AM 53.6 °F 53.6 °F 100% 30.08 in 2.5 mi Calm Calm - 0.02 in Rain Light Rain
1:53 AM 54.0 °F 53.1 °F 97% 30.09 in 2.5 mi Calm Calm - 0.02 in Rain Light Rain
2:15 AM 53.6 °F 53.6 °F 100% 30.08 in 2.5 mi Calm Calm - 0.01 in Rain Light Rain
2:19 AM 53.6 °F 53.6 °F 100% 30.08 in 3.0 mi Calm Calm - 0.01 in Rain Light Rain
2:44 AM 53.6 °F 53.6 °F 100% 30.08 in 2.5 mi Calm Calm - 0.01 in   Overcast
2:49 AM 53.6 °F 53.6 °F 100% 30.08 in 1.8 mi Calm Calm - 0.01 in   Overcast
2:53 AM 54.0 °F 53.1 °F 97% 30.08 in 1.5 mi Calm Calm - 0.01 in   Overcast
3:09 AM 53.6 °F 53.6 °F 100% 30.08 in 2.0 mi Calm Calm - 0.01 in   Overcast
3:16 AM 53.6 °F 53.6 °F 100% 30.08 in 1.8 mi Calm Calm - 0.01 in   Overcast
3:31 AM 53.6 °F 53.6 °F 100% 30.08 in 1.8 mi Calm Calm - 0.01 in   Overcast
3:53 AM 54.0 °F 53.1 °F 97% 30.09 in 1.5 mi Calm Calm - 0.02 in Rain Light Rain
4:08 AM 53.6 °F 53.6 °F 100% 30.08 in 2.5 mi Calm Calm - 0.00 in Rain Light Rain
4:17 AM 53.6 °F 53.6 °F 100% 30.08 in 3.0 mi Calm Calm - 0.00 in   Overcast
4:53 AM 54.0 °F 53.1 °F 97% 30.08 in 10.0 mi Calm Calm - 0.00 in   Overcast
5:53 AM 54.0 °F 53.1 °F 97% 30.11 in 10.0 mi Calm Calm - N/A   Overcast
6:43 AM 53.6 °F 51.8 °F 94% 30.12 in 5.0 mi Calm Calm - 0.01 in   Scattered Clouds
6:46 AM 51.8 °F 51.8 °F 100% 30.12 in 1.8 mi Calm Calm - 0.01 in   Scattered Clouds
6:53 AM 52.0 °F 51.1 °F 97% 30.13 in 1.2 mi Calm Calm - 0.01 in   Partly Cloudy
6:59 AM 51.8 °F 51.8 °F 100% 30.13 in 0.8 mi West 3.5 mph - N/A   Mist
7:18 AM 51.8 °F 51.8 °F 100% 30.14 in 0.2 mi WNW 3.5 mph - N/A Fog Fog
7:45 AM 51.8 °F 51.8 °F 100% 30.15 in 1.0 mi Calm Calm - N/A   Mist
7:47 AM 51.8 °F 51.8 °F 100% 30.16 in 2.0 mi Calm Calm - N/A   Mostly Cloudy
7:51 AM 51.8 °F 51.8 °F 100% 30.16 in 5.0 mi Calm Calm - N/A   Scattered Clouds
7:53 AM 52.0 °F 51.1 °F 97% 30.16 in 6.0 mi WNW 3.5 mph - N/A   Scattered Clouds
8:06 AM 51.8 °F 51.8 °F 100% 30.16 in 1.8 mi North 5.8 mph - N/A   Scattered Clouds
8:09 AM 51.8 °F 51.8 °F 100% 30.16 in 1.2 mi Variable 3.5 mph - N/A   Mostly Cloudy
8:23 AM 53.6 °F 51.8 °F 94% 30.17 in 2.5 mi Calm Calm - N/A   Mostly Cloudy
8:30 AM 53.6 °F 53.6 °F 100% 30.17 in 4.0 mi Variable 3.5 mph - N/A   Overcast
8:49 AM 55.4 °F 53.6 °F 94% 30.17 in 10.0 mi Calm Calm - N/A   Scattered Clouds
8:53 AM 55.0 °F 53.1 °F 93% 30.17 in 10.0 mi Calm Calm - N/A   Partly Cloudy
9:53 AM 61.0 °F 46.9 °F 60% 30.19 in 10.0 mi Calm Calm - N/A   Clear
10:53 AM 64.0 °F 43.0 °F 46% 30.18 in 10.0 mi Calm Calm - N/A   Clear
11:53 AM 66.0 °F 44.1 °F 45% 30.17 in 10.0 mi Calm Calm - N/A   Clear
12:53 PM 69.1 °F 44.1 °F 40% 30.14 in 10.0 mi Variable 5.8 mph - N/A   Clear
1:53 PM 70.0 °F 43.0 °F 38% 30.12 in 10.0 mi Calm Calm - N/A   Clear
2:53 PM 68.0 °F 45.0 °F 43% 30.10 in 10.0 mi West 5.8 mph - N/A   Clear
3:53 PM 66.9 °F 44.1 °F 44% 30.09 in 10.0 mi WSW 3.5 mph - N/A   Clear
4:53 PM 66.0 °F 39.0 °F 37% 30.09 in 10.0 mi NNE 6.9 mph - N/A   Clear
5:53 PM 61.0 °F 41.0 °F 48% 30.09 in 10.0 mi Calm Calm - N/A   Clear
6:53 PM 57.9 °F 45.0 °F 62% 30.11 in 10.0 mi Calm Calm - N/A   Clear
7:53 PM 54.0 °F 46.0 °F 75% 30.12 in 10.0 mi Calm Calm - N/A   Clear
8:53 PM 53.1 °F 46.0 °F 77% 30.12 in 10.0 mi NW 4.6 mph - N/A   Clear
9:53 PM 51.1 °F 46.0 °F 83% 30.13 in 10.0 mi WNW 3.5 mph - N/A   Clear
10:53 PM 48.9 °F 44.1 °F 83% 30.14 in 10.0 mi Calm Calm - N/A   Clear
11:53 PM 46.9 °F 43.0 °F 86% 30.11 in 10.0 mi Calm Calm - N/A   Clear